START_TIME,STEP,MOV.,M15,t_acc.,M20,t_acc.
1979-08-05 21:00:42.510 ,0,0,0.,24.0,0.,24.0
1979-08-05 21:01:06.510 ,0,1,0.,24.0,0.,24.0
1979-08-05 21:01:30.510 ,0,0,0.,24.0,0.,24.0
1979-08-05 21:01:54.510 ,1,1,0.,24.0,0.,24.0
1979-08-05 21:02:18.510 ,1,0,0.,24.0,0.,24.0
1979-08-05 21:02:42.510 ,2,1,0.,24.0,0.,24.0
1979-08-05 21:03:06.510 ,2,0,0.,24.0,0.,24.0
1979-08-05 21:03:30.510 ,3,1,0.,24.0,0.,24.0
1979-08-05 21:03:54.510 ,3,0,0.,24.0,0.,24.0
1979-08-05 21:04:18.510 ,4,1,0.,24.0,0.,24.0
1979-08-05 21:04:42.510 ,4,0,0.,24.0,0.,24.0
1979-08-05 21:05:06.510 ,5,1,0.,24.0,0.,24.0
1979-08-05 21:05:30.510 ,5,0,0.,24.0,0.,24.0
1979-08-05 21:05:54.510 ,6,1,0.,24.0,0.,24.0
1979-08-05 21:06:18.510 ,6,0,0.,24.0,0.,24.0
1979-08-05 21:06:42.510 ,7,0,0.,24.0,0.,24.0
1979-08-05 21:07:06.510 ,7,0,0.,24.0,0.,24.0
1979-08-05 21:07:30.510 ,3,1,0.,24.0,0.,24.0
1979-08-05 21:07:54.510 ,0,1,0.,24.0,0.,24.0
1979-08-05 21:08:18.510 ,4,1,0.,24.0,0.,24.0
1979-08-05 21:08:42.510 ,7,1,0.,24.0,0.,24.0
1979-08-05 21:09:06.510 ,3,1,0.,24.0,0.,24.0
1979-08-05 21:09:30.510 ,0,1,0.,24.0,0.,24.0
1979-08-05 21:09:54.510 ,4,1,0.,24.0,0.,24.0
1979-08-05 21:10:18.510 ,7,1,0.,24.0,1.,24.0
1979-08-05 21:10:42.510 ,3,1,0.,24.0,0.,24.0
1979-08-05 21:11:06.510 ,0,1,0.,24.0,0.,24.0
1979-08-05 21:11:30.510 ,4,1,0.,24.0,0.,24.0
1979-08-05 21:11:54.510 ,7,1,0.,24.0,0.,24.0
1979-08-05 21:12:18.510 ,3,1,0.,24.0,0.,24.0
1979-08-05 21:12:42.510 ,0,1,0.,24.0,0.,24.0
1979-08-05 21:13:07.110 ,4,1,0.,24.0,0.,24.0
1979-08-05 21:13:30.510 ,7,1,0.,24.0,0.,24.0
1979-08-05 21:13:54.510 ,3,1,0.,24.0,0.,24.0
1979-08-05 21:14:18.510 ,0,1,0.,24.0,0.,24.0
1979-08-05 21:14:42.510 ,4,1,0.,24.0,0.,24.0
1979-08-05 21:15:06.510 ,7,1,0.,24.0,0.,24.0
1979-08-05 21:15:30.510 ,3,1,1.,24.0,0.,24.0
1979-08-05 21:15:54.510 ,0,1,0.,24.0,0.,24.0
1979-08-05 21:16:18.510 ,4,1,0.,24.0,0.,24.0
1979-08-05 21:16:42.510 ,7,1,0.,24.0,0.,24.0
1979-08-05 21:17:06.510 ,3,1,0.,24.0,0.,24.0
1979-08-05 21:17:30.510 ,0,1,0.,24.0,0.,24.0
1979-08-05 21:17:54.510 ,0,0,0.,24.0,0.,24.0
1979-08-05 21:18:18.510 ,0,0,0.,24.0,0.,24.0
1979-08-05 21:18:42.510 ,5,1,0.,24.0,0.,24.0
1979-08-05 21:19:06.510 ,5,0,0.,24.0,0.,24.0
1979-08-05 21:19:30.510 ,4,1,0.,24.0,0.,24.0
1979-08-05 21:19:54.510 ,4,0,0.,24.0,0.,24.0
1979-08-05 21:20:18.510 ,3,1,0.,24.0,0.,24.0
1979-08-05 21:20:42.510 ,3,0,0.,24.0,0.,24.0
1979-08-05 21:21:06.510 ,2,1,0.,24.0,0.,24.0
1979-08-05 21:21:30.510 ,2,0,0.,24.0,0.,24.0
1979-08-05 21:21:54.510 ,1,1,0.,24.0,0.,24.0
1979-08-05 21:22:18.510 ,1,0,0.,24.0,0.,24.0
1979-08-05 21:22:42.510 ,0,1,0.,24.0,0.,24.0
1979-08-05 21:23:06.510 ,0,0,1.,24.0,0.,24.0
1979-08-05 21:23:30.510 ,0,1,0.,24.0,0.,24.0
1979-08-05 21:23:54.510 ,0,0,0.,24.0,0.,24.0
1979-08-05 21:24:18.510 ,1,1,0.,24.0,0.,24.0
1979-08-05 21:24:42.510 ,1,0,0.,24.0,0.,24.0
1979-08-05 21:25:06.510 ,2,1,0.,24.0,0.,24.0
1979-08-05 21:25:30.510 ,2,0,0.,24.0,0.,24.0
1979-08-05 21:25:54.510 ,3,1,0.,24.0,0.,24.0
1979-08-05 21:26:18.510 ,3,0,0.,24.0,0.,24.0
1979-08-05 21:26:42.510 ,4,1,0.,24.0,0.,24.0
1979-08-05 21:27:06.510 ,4,0,0.,24.0,0.,24.0
1979-08-05 21:27:30.510 ,5,1,0.,24.0,0.,24.0
1979-08-05 21:27:54.510 ,5,0,0.,24.0,0.,24.0
1979-08-05 21:28:18.510 ,6,1,0.,24.0,0.,24.0
1979-08-05 21:28:42.510 ,0,0,0.,24.0,0.,24.0
1979-08-05 21:29:06.510 ,7,1,0.,24.0,0.,24.0
1979-08-05 21:29:30.510 ,7,0,0.,24.0,0.,24.0
1979-08-05 21:29:54.510 ,7,1,0.,24.0,0.,24.0
1979-08-05 21:30:18.510 ,7,0,0.,24.0,0.,24.0
1979-08-05 21:30:42.510 ,6,1,0.,24.0,0.,24.0
1979-08-05 21:31:06.510 ,6,0,0.,24.0,0.,24.0
1979-08-05 21:31:30.510 ,5,1,0.,24.0,0.,24.0
1979-08-05 21:31:54.510 ,5,0,0.,24.0,0.,24.0
1979-08-05 21:32:18.510 ,4,1,0.,24.0,0.,24.0
1979-08-05 21:32:42.510 ,4,0,0.,24.0,0.,24.0
1979-08-05 21:33:06.510 ,3,1,0.,24.0,0.,24.0
1979-08-05 21:33:30.510 ,3,0,0.,24.0,0.,24.0
1979-08-05 21:33:54.510 ,2,1,0.,24.0,0.,24.0
1979-08-05 21:34:18.510 ,2,0,0.,24.0,0.,24.0
1979-08-05 21:34:42.510 ,1,1,1.,24.0,0.,24.0
1979-08-05 21:35:06.510 ,1,0,0.,24.0,0.,24.0
1979-08-05 21:35:30.510 ,0,0,,0,,0
1979-08-05 21:35:54.510 ,0,0,0.,24.0,0.,24.0
1979-08-05 21:36:18.510 ,0,1,0.,24.0,0.,24.0
1979-08-05 21:36:42.510 ,0,0,0.,24.0,0.,24.0
1979-08-05 21:37:06.510 ,1,1,0.,24.0,0.,24.0
1979-08-05 21:37:30.510 ,0,0,0.,24.0,0.,24.0
1979-08-05 21:37:54.510 ,2,1,0.,24.0,0.,24.0
1979-08-05 21:38:18.510 ,2,0,0.,24.0,0.,24.0
1979-08-05 21:38:42.510 ,3,1,0.,24.0,0.,24.0
1979-08-05 21:39:06.510 ,3,0,0.,24.0,0.,24.0
1979-08-05 21:39:30.510 ,4,1,0.,24.0,0.,24.0
1979-08-05 21:39:54.510 ,4,0,0.,24.0,0.,24.0
1979-08-05 21:40:18.510 ,5,1,0.,24.0,0.,24.0
1979-08-05 21:40:42.510 ,5,0,0.,24.0,0.,24.0
1979-08-05 21:41:06.510 ,6,1,0.,24.0,0.,24.0
1979-08-05 21:41:30.510 ,6,0,0.,24.0,0.,24.0
1979-08-05 21:41:54.510 ,7,1,0.,24.0,0.,24.0
1979-08-05 21:42:18.510 ,0,0,0.,24.0,0.,24.0
1979-08-05 21:42:42.510 ,7,1,0.,24.0,0.,24.0
1979-08-05 21:43:06.510 ,7,0,0.,24.0,0.,24.0
1979-08-05 21:43:30.510 ,6,1,0.,24.0,0.,24.0
1979-08-05 21:43:54.510 ,6,0,0.,24.0,0.,24.0
1979-08-05 21:44:18.510 ,5,1,0.,24.0,0.,24.0
1979-08-05 21:44:42.510 ,5,0,0.,24.0,0.,24.0
1979-08-05 21:45:06.510 ,4,1,0.,24.0,0.,24.0
1979-08-05 21:45:30.510 ,4,0,0.,24.0,0.,24.0
1979-08-05 21:45:54.510 ,3,1,0.,24.0,0.,24.0
1979-08-05 21:46:18.510 ,3,0,0.,24.0,0.,24.0
1979-08-05 21:46:42.510 ,2,1,0.,24.0,0.,24.0
1979-08-05 21:47:06.510 ,2,0,0.,24.0,0.,24.0
1979-08-05 21:47:30.510 ,1,1,0.,24.0,0.,24.0
1979-08-05 21:47:54.510 ,1,0,0.,24.0,0.,24.0
1979-08-05 21:48:18.510 ,0,1,0.,24.0,0.,24.0
1979-08-05 21:48:42.510 ,0,1,0.,24.0,0.,24.0
1979-08-05 21:49:06.510 ,0,1,0.,24.0,0.,24.0
1979-08-05 21:49:30.510 ,0,0,1.,24.0,0.,24.0
1979-08-05 21:49:54.510 ,1,1,0.,24.0,0.,24.0
1979-08-05 21:50:18.510 ,1,0,0.,24.0,0.,24.0
1979-08-05 21:50:42.510 ,2,1,0.,24.0,0.,24.0
1979-08-05 21:51:06.510 ,2,0,0.,24.0,0.,24.0
1979-08-05 21:51:30.510 ,3,1,0.,24.0,0.,24.0
1979-08-05 21:51:54.510 ,3,0,0.,24.0,0.,24.0
1979-08-05 21:52:18.510 ,4,1,0.,24.0,0.,24.0
1979-08-05 21:52:42.510 ,4,0,0.,24.0,0.,24.0
1979-08-05 21:53:06.510 ,5,1,0.,24.0,0.,24.0
1979-08-05 21:53:30.510 ,5,0,0.,24.0,0.,24.0
1979-08-05 21:53:54.510 ,6,1,0.,24.0,0.,24.0
1979-08-05 21:54:18.510 ,6,0,0.,24.0,0.,24.0
1979-08-05 21:54:42.510 ,7,0,0.,24.0,0.,24.0
1979-08-05 21:55:06.510 ,7,0,0.,24.0,0.,24.0
1979-08-05 21:55:30.510 ,0,0,,0,,0
1979-08-05 21:55:54.510 ,0,0,0.,24.0,0.,24.0
1979-08-05 21:56:18.510 ,4,1,0.,24.0,0.,24.0
1979-08-05 21:56:42.510 ,7,1,0.,24.0,0.,24.0
1979-08-05 21:57:06.510 ,3,1,0.,24.0,0.,24.0
1979-08-05 21:57:30.510 ,0,1,0.,24.0,0.,24.0
1979-08-05 21:57:54.510 ,4,1,0.,24.0,0.,24.0
1979-08-05 21:58:18.510 ,7,1,0.,24.0,0.,24.0
1979-08-05 21:58:42.510 ,3,1,0.,24.0,0.,24.0
1979-08-05 21:59:06.510 ,0,1,0.,24.0,0.,24.0
1979-08-05 21:59:30.510 ,4,1,0.,24.0,0.,24.0
1979-08-05 21:59:54.510 ,7,1,0.,24.0,0.,24.0
1979-08-05 22:00:18.510 ,3,1,0.,24.0,0.,24.0
1979-08-05 22:00:42.510 ,0,1,0.,24.0,0.,24.0
1979-08-05 22:01:06.510 ,4,1,0.,24.0,0.,24.0
1979-08-05 22:01:30.510 ,7,1,0.,24.0,0.,24.0
1979-08-05 22:01:54.510 ,3,1,0.,24.0,0.,24.0
1979-08-05 22:02:18.510 ,0,1,0.,24.0,0.,24.0
1979-08-05 22:02:42.510 ,4,1,0.,24.0,0.,24.0
1979-08-05 22:03:06.510 ,7,1,0.,24.0,0.,24.0
1979-08-05 22:03:30.510 ,3,1,0.,24.0,0.,24.0
1979-08-05 22:03:54.510 ,0,1,0.,24.0,0.,24.0
1979-08-05 22:04:18.510 ,4,1,0.,24.0,0.,24.0
1979-08-05 22:04:42.510 ,7,1,0.,24.0,0.,24.0
1979-08-05 22:05:06.510 ,3,1,0.,24.0,0.,24.0
1979-08-05 22:05:30.510 ,0,1,0.,24.0,0.,24.0
1979-08-05 22:05:54.510 ,0,0,0.,24.0,0.,24.0
1979-08-05 22:06:18.510 ,0,0,0.,24.0,0.,24.0
1979-08-05 22:06:42.510 ,5,1,0.,24.0,0.,24.0
1979-08-05 22:07:06.510 ,5,0,0.,24.0,0.,24.0
1979-08-05 22:07:30.510 ,4,1,0.,24.0,0.,24.0
1979-08-05 22:07:54.510 ,4,0,0.,24.0,0.,24.0
1979-08-05 22:08:18.510 ,3,1,0.,24.0,0.,24.0
1979-08-05 22:08:42.510 ,3,0,0.,24.0,0.,24.0
1979-08-05 22:09:06.510 ,2,1,0.,24.0,0.,24.0
1979-08-05 22:09:30.510 ,2,0,0.,24.0,0.,24.0
1979-08-05 22:09:54.510 ,1,1,0.,24.0,0.,24.0
1979-08-05 22:10:18.510 ,1,0,0.,24.0,0.,24.0
1979-08-05 22:10:42.510 ,0,1,0.,24.0,0.,24.0
1979-08-05 22:11:06.510 ,0,0,0.,24.0,0.,24.0
1979-08-05 22:11:30.510 ,0,1,0.,24.0,0.,24.0
1979-08-05 22:11:54.510 ,0,0,0.,24.0,0.,24.0
1979-08-05 22:12:18.510 ,1,1,0.,24.0,0.,24.0
1979-08-05 22:12:42.510 ,1,0,0.,24.0,0.,24.0
1979-08-05 22:13:06.510 ,2,1,0.,24.0,0.,24.0
1979-08-05 22:13:30.510 ,2,0,0.,24.0,0.,24.0
1979-08-05 22:13:54.510 ,3,1,1.,24.0,0.,24.0
1979-08-05 22:14:18.510 ,3,0,0.,24.0,0.,24.0
1979-08-05 22:14:42.510 ,4,1,0.,24.0,0.,24.0
1979-08-05 22:15:06.510 ,4,0,0.,24.0,0.,24.0
1979-08-05 22:15:30.510 ,5,1,0.,24.0,0.,24.0
1979-08-05 22:15:54.510 ,5,0,0.,24.0,0.,24.0
1979-08-05 22:16:18.510 ,6,1,0.,24.0,0.,24.0
1979-08-05 22:16:42.510 ,6,0,0.,24.0,0.,24.0
1979-08-05 22:17:06.510 ,7,1,0.,24.0,0.,24.0
1979-08-05 22:17:30.510 ,7,0,0.,24.0,0.,24.0
1979-08-05 22:17:54.510 ,7,1,0.,24.0,0.,24.0
1979-08-05 22:18:18.510 ,7,0,0.,24.0,0.,24.0
1979-08-05 22:18:42.510 ,6,1,0.,24.0,0.,24.0
1979-08-05 22:19:06.510 ,6,0,0.,24.0,0.,24.0
1979-08-05 22:19:30.510 ,5,1,0.,24.0,0.,24.0
1979-08-05 22:19:54.510 ,5,0,0.,24.0,0.,24.0
1979-08-05 22:20:18.510 ,4,1,0.,24.0,0.,24.0
1979-08-05 22:20:42.510 ,4,0,0.,24.0,0.,24.0
1979-08-05 22:21:06.510 ,3,1,0.,24.0,0.,24.0
1979-08-05 22:21:30.510 ,3,0,0.,24.0,0.,24.0
1979-08-05 22:21:54.510 ,2,1,0.,24.0,0.,24.0
1979-08-05 22:22:18.510 ,2,0,0.,24.0,0.,24.0
1979-08-05 22:22:42.510 ,1,1,0.,24.0,0.,24.0
1979-08-05 22:23:06.510 ,1,0,0.,24.0,0.,24.0
1979-08-05 22:23:30.510 ,0,1,0.,24.0,0.,24.0
1979-08-05 22:23:54.510 ,0,0,0.,24.0,0.,24.0
1979-08-05 22:24:18.510 ,0,1,0.,24.0,0.,24.0
1979-08-05 22:24:42.510 ,0,0,0.,24.0,0.,24.0
1979-08-05 22:25:06.510 ,1,1,0.,24.0,0.,24.0
1979-08-05 22:25:30.510 ,1,0,0.,24.0,0.,24.0
1979-08-05 22:25:54.510 ,2,1,0.,24.0,0.,24.0
1979-08-05 22:26:18.510 ,2,0,1.,24.0,0.,24.0
1979-08-05 22:26:42.510 ,3,1,0.,24.0,0.,24.0
1979-08-05 22:27:06.510 ,3,0,0.,24.0,0.,24.0
1979-08-05 22:27:30.510 ,4,1,0.,24.0,0.,24.0
1979-08-05 22:27:54.510 ,4,0,0.,24.0,0.,24.0
1979-08-05 22:28:18.510 ,5,1,0.,24.0,0.,24.0
1979-08-05 22:28:42.510 ,5,0,0.,24.0,0.,24.0
1979-08-05 22:29:06.510 ,6,1,0.,24.0,0.,24.0
1979-08-05 22:29:30.510 ,6,0,0.,24.0,0.,24.0
1979-08-05 22:29:54.510 ,7,1,0.,24.0,0.,24.0
1979-08-05 22:30:18.510 ,7,0,0.,24.0,0.,24.0
1979-08-05 22:30:42.510 ,7,1,0.,24.0,0.,24.0
1979-08-05 22:31:06.510 ,7,0,0.,24.0,0.,24.0
1979-08-05 22:31:30.510 ,6,1,0.,24.0,0.,24.0
1979-08-05 22:31:54.510 ,6,0,0.,24.0,0.,24.0
1979-08-05 22:32:18.510 ,5,1,0.,24.0,0.,24.0
1979-08-05 22:32:42.510 ,5,0,0.,24.0,0.,24.0
1979-08-05 22:33:06.510 ,4,1,0.,24.0,0.,24.0
1979-08-05 22:33:30.510 ,4,0,0.,24.0,0.,24.0
1979-08-05 22:33:54.510 ,3,1,0.,24.0,0.,24.0
1979-08-05 22:34:18.510 ,3,0,0.,24.0,0.,24.0
1979-08-05 22:34:42.510 ,2,1,0.,24.0,0.,24.0
1979-08-05 22:35:06.510 ,2,0,0.,24.0,0.,24.0
1979-08-05 22:35:30.510 ,1,1,0.,24.0,0.,24.0
1979-08-05 22:35:54.510 ,1,0,1.,24.0,0.,24.0
1979-08-05 22:36:18.510 ,0,1,0.,24.0,0.,24.0
1979-08-05 22:36:42.510 ,0,0,0.,24.0,0.,24.0
1979-08-05 22:37:06.510 ,0,1,0.,24.0,0.,24.0
1979-08-05 22:37:30.510 ,0,0,0.,24.0,0.,24.0
1979-08-05 22:37:54.510 ,1,1,0.,24.0,0.,24.0
1979-08-05 22:38:18.510 ,1,0,0.,24.0,0.,24.0
1979-08-05 22:38:42.510 ,2,1,0.,24.0,0.,24.0
1979-08-05 22:39:06.510 ,2,0,0.,24.0,0.,24.0
1979-08-05 22:39:30.510 ,3,1,0.,24.0,0.,24.0
1979-08-05 22:39:54.510 ,3,0,0.,24.0,0.,24.0
1979-08-05 22:40:18.510 ,4,1,0.,24.0,0.,24.0
1979-08-05 22:40:42.510 ,4,0,0.,24.0,0.,24.0
1979-08-05 22:41:06.510 ,5,1,0.,24.0,0.,24.0
1979-08-05 22:41:30.510 ,5,0,0.,24.0,0.,24.0
1979-08-05 22:41:54.510 ,6,1,0.,24.0,0.,24.0
1979-08-05 22:42:18.510 ,6,0,0.,24.0,0.,24.0
1979-08-05 22:42:42.510 ,7,0,0.,24.0,0.,24.0
1979-08-05 22:43:06.510 ,7,0,0.,24.0,0.,24.0
1979-08-05 22:43:30.510 ,3,1,0.,24.0,0.,24.0
1979-08-05 22:43:54.510 ,0,1,0.,24.0,0.,24.0
1979-08-05 22:44:18.510 ,4,1,0.,24.0,0.,24.0
1979-08-05 22:44:42.510 ,7,1,0.,24.0,0.,24.0
1979-08-05 22:45:06.510 ,3,1,0.,24.0,0.,24.0
1979-08-05 22:45:30.510 ,0,1,0.,24.0,0.,24.0
1979-08-05 22:45:54.510 ,4,1,0.,24.0,0.,24.0
1979-08-05 22:46:18.510 ,0,0,0.,24.0,0.,24.0
1979-08-05 22:46:40.110 ,0,0,,0,,0
1979-08-05 22:46:42.510 ,3,1,0.,24.0,0.,24.0
1979-08-05 22:47:06.510 ,0,1,0.,24.0,0.,24.0
1979-08-05 22:47:30.510 ,4,1,0.,24.0,0.,24.0
1979-08-05 22:47:54.510 ,7,1,0.,24.0,0.,24.0
1979-08-05 22:48:18.510 ,3,1,0.,24.0,0.,24.0
1979-08-05 22:48:42.510 ,0,1,0.,24.0,0.,24.0
1979-08-05 22:49:06.510 ,4,1,0.,24.0,0.,24.0
1979-08-05 22:49:30.510 ,7,1,0.,24.0,0.,24.0
1979-08-05 22:49:54.510 ,3,1,0.,24.0,0.,24.0
1979-08-05 22:50:18.510 ,0,1,0.,24.0,0.,24.0
1979-08-05 22:50:42.510 ,4,1,0.,24.0,0.,24.0
1979-08-05 22:51:06.510 ,7,1,0.,24.0,0.,24.0
1979-08-05 22:51:30.510 ,3,1,0.,24.0,0.,24.0
1979-08-05 22:51:54.510 ,0,1,0.,24.0,0.,24.0
1979-08-05 22:52:18.510 ,4,1,0.,24.0,0.,24.0
1979-08-05 22:52:42.510 ,7,1,0.,24.0,0.,24.0
1979-08-05 22:53:06.510 ,3,1,0.,24.0,0.,24.0
1979-08-05 22:53:30.510 ,0,1,0.,24.0,0.,24.0
1979-08-05 22:53:54.510 ,0,0,0.,24.0,0.,24.0
1979-08-05 22:54:18.510 ,0,0,0.,24.0,0.,24.0
1979-08-05 22:54:42.510 ,5,1,0.,24.0,0.,24.0
1979-08-05 22:55:06.510 ,5,0,0.,24.0,0.,24.0
1979-08-05 22:55:30.510 ,4,1,0.,24.0,0.,24.0
1979-08-05 22:55:54.510 ,4,0,0.,24.0,0.,24.0
1979-08-05 22:56:18.510 ,3,1,0.,24.0,0.,24.0
1979-08-05 22:56:42.510 ,3,0,0.,24.0,0.,24.0
1979-08-05 22:57:06.510 ,2,1,0.,24.0,0.,24.0
1979-08-05 22:57:30.510 ,2,0,0.,24.0,0.,24.0
1979-08-05 22:57:54.510 ,1,1,0.,24.0,0.,24.0
1979-08-05 22:58:18.510 ,1,0,0.,24.0,0.,24.0
1979-08-05 22:58:42.510 ,0,1,0.,24.0,0.,24.0
1979-08-05 22:59:06.510 ,0,0,0.,24.0,0.,24.0
1979-08-05 22:59:30.510 ,0,1,0.,24.0,0.,24.0
1979-08-05 22:59:54.510 ,0,0,0.,24.0,0.,24.0
1979-08-05 23:00:18.510 ,1,1,0.,24.0,0.,24.0
1979-08-05 23:00:42.510 ,1,0,0.,24.0,0.,24.0
1979-08-05 23:01:06.510 ,2,1,0.,24.0,0.,24.0
1979-08-05 23:01:30.510 ,2,0,0.,24.0,0.,24.0
1979-08-05 23:01:54.510 ,3,1,0.,24.0,0.,24.0
1979-08-05 23:02:18.510 ,3,0,0.,24.0,0.,24.0
1979-08-05 23:02:42.510 ,4,1,0.,24.0,0.,24.0
1979-08-05 23:03:06.510 ,4,0,0.,24.0,0.,24.0
1979-08-05 23:03:30.510 ,5,1,0.,24.0,0.,24.0
1979-08-05 23:03:54.510 ,5,0,0.,24.0,0.,24.0
1979-08-05 23:04:18.510 ,6,1,0.,24.0,0.,24.0
1979-08-05 23:04:42.510 ,6,0,0.,24.0,0.,24.0
1979-08-05 23:05:07.110 ,7,1,0.,24.0,0.,24.0
1979-08-05 23:05:30.510 ,7,0,0.,24.0,0.,24.0
1979-08-05 23:05:54.510 ,7,1,0.,24.0,0.,24.0
1979-08-05 23:06:18.510 ,7,0,0.,24.0,0.,24.0
1979-08-05 23:06:42.510 ,6,1,0.,24.0,0.,24.0
1979-08-05 23:07:06.510 ,6,0,0.,24.0,0.,24.0
1979-08-05 23:07:30.510 ,5,1,0.,24.0,0.,24.0
1979-08-05 23:07:54.510 ,5,0,0.,24.0,0.,24.0
1979-08-05 23:08:18.510 ,4,1,0.,24.0,0.,24.0
1979-08-05 23:08:42.510 ,4,0,0.,24.0,0.,24.0
1979-08-05 23:09:06.510 ,3,1,0.,24.0,0.,24.0
1979-08-05 23:09:30.510 ,3,0,0.,24.0,0.,24.0
1979-08-05 23:09:54.510 ,2,1,0.,24.0,0.,24.0
1979-08-05 23:10:18.510 ,2,0,0.,24.0,0.,24.0
1979-08-05 23:10:42.510 ,1,1,0.,24.0,0.,24.0
1979-08-05 23:11:06.510 ,1,0,0.,24.0,0.,24.0
1979-08-05 23:11:30.510 ,0,1,0.,24.0,0.,24.0
1979-08-05 23:11:54.510 ,0,0,0.,24.0,0.,24.0
1979-08-05 23:12:18.510 ,0,1,0.,24.0,0.,24.0
1979-08-05 23:12:42.510 ,0,0,0.,24.0,0.,24.0
1979-08-05 23:13:06.510 ,1,1,0.,24.0,0.,24.0
1979-08-05 23:13:30.510 ,1,0,0.,24.0,0.,24.0
1979-08-05 23:13:54.510 ,2,1,0.,24.0,0.,24.0
1979-08-05 23:14:18.510 ,2,0,0.,24.0,0.,24.0
1979-08-05 23:14:42.510 ,3,1,0.,24.0,0.,24.0
1979-08-05 23:15:06.510 ,3,0,0.,24.0,0.,24.0
1979-08-05 23:15:30.510 ,4,1,0.,24.0,0.,24.0
1979-08-05 23:15:54.510 ,4,0,0.,24.0,0.,24.0
1979-08-05 23:16:18.510 ,5,1,0.,24.0,0.,24.0
1979-08-05 23:16:42.510 ,5,0,0.,24.0,0.,24.0
1979-08-05 23:17:06.510 ,6,1,0.,24.0,0.,24.0
1979-08-05 23:17:54.510 ,7,1,0.,24.0,0.,24.0
1979-08-05 23:18:18.510 ,7,0,0.,24.0,0.,24.0
1979-08-05 23:18:42.510 ,7,1,0.,24.0,0.,24.0
1979-08-05 23:19:06.510 ,7,0,0.,24.0,0.,24.0
1979-08-05 23:19:30.510 ,6,1,0.,24.0,0.,24.0
1979-08-05 23:19:54.510 ,6,0,0.,24.0,0.,24.0
1979-08-05 23:20:18.510 ,5,1,0.,24.0,0.,24.0
1979-08-05 23:20:42.510 ,5,0,0.,24.0,0.,24.0
1979-08-05 23:21:06.510 ,4,1,0.,24.0,0.,24.0
1979-08-05 23:21:30.510 ,4,0,0.,24.0,0.,24.0
1979-08-05 23:21:54.510 ,3,1,0.,24.0,0.,24.0
1979-08-05 23:22:18.510 ,3,0,0.,24.0,0.,24.0
1979-08-05 23:22:42.510 ,2,1,0.,24.0,0.,24.0
1979-08-05 23:23:06.510 ,2,0,0.,24.0,0.,24.0
1979-08-05 23:23:30.510 ,1,1,0.,24.0,0.,24.0
1979-08-05 23:23:54.510 ,1,0,0.,24.0,0.,24.0
1979-08-05 23:24:18.510 ,0,1,0.,24.0,0.,24.0
1979-08-05 23:24:42.510 ,0,0,0.,24.0,0.,24.0
1979-08-05 23:25:06.510 ,0,1,0.,24.0,0.,24.0
1979-08-05 23:25:30.510 ,0,0,0.,24.0,0.,24.0
1979-08-05 23:25:54.510 ,1,1,0.,24.0,0.,24.0
1979-08-05 23:26:18.510 ,1,0,0.,24.0,0.,24.0
1979-08-05 23:26:42.510 ,2,1,0.,24.0,0.,24.0
1979-08-05 23:27:06.510 ,2,0,1.,24.0,0.,24.0
1979-08-05 23:27:30.510 ,3,1,0.,24.0,0.,24.0
1979-08-05 23:27:54.510 ,3,0,0.,24.0,0.,24.0
1979-08-05 23:28:18.510 ,4,1,0.,24.0,0.,24.0
1979-08-05 23:28:42.510 ,4,0,0.,24.0,0.,24.0
1979-08-05 23:29:06.510 ,5,1,0.,24.0,0.,24.0
1979-08-05 23:29:30.510 ,5,0,0.,24.0,0.,24.0
1979-08-05 23:29:54.510 ,6,1,0.,24.0,0.,24.0
1979-08-05 23:30:18.510 ,6,0,0.,24.0,0.,24.0
1979-08-05 23:30:42.510 ,7,0,0.,24.0,0.,24.0
1979-08-05 23:31:06.510 ,7,0,0.,24.0,0.,24.0
1979-08-05 23:31:30.510 ,3,1,0.,24.0,0.,24.0
1979-08-05 23:31:54.510 ,0,1,0.,24.0,0.,24.0
1979-08-05 23:32:18.510 ,4,1,0.,24.0,0.,24.0
1979-08-05 23:32:42.510 ,7,1,0.,24.0,0.,24.0
1979-08-05 23:33:06.510 ,3,1,0.,24.0,0.,24.0
1979-08-05 23:33:30.510 ,0,1,0.,24.0,0.,24.0
1979-08-05 23:33:54.510 ,4,1,0.,24.0,0.,24.0
1979-08-05 23:34:18.500 ,7,1,0.,24.0,0.,24.0
1979-08-05 23:34:42.500 ,3,1,0.,24.0,0.,24.0
1979-08-05 23:35:06.500 ,0,1,0.,24.0,0.,24.0
1979-08-05 23:35:30.500 ,4,1,0.,24.0,0.,24.0
1979-08-05 23:35:54.500 ,7,1,0.,24.0,0.,24.0
1979-08-05 23:36:18.500 ,3,1,0.,24.0,0.,24.0
1979-08-05 23:36:42.500 ,0,1,0.,24.0,0.,24.0
1979-08-05 23:37:06.500 ,4,1,0.,24.0,0.,24.0
1979-08-05 23:37:30.500 ,7,1,0.,24.0,0.,24.0
1979-08-05 23:37:54.500 ,3,1,0.,24.0,0.,24.0
1979-08-05 23:38:18.500 ,0,1,0.,24.0,0.,24.0
1979-08-05 23:38:42.500 ,0,0,0.,24.0,0.,24.0
1979-08-05 23:39:06.500 ,7,1,0.,24.0,0.,24.0
1979-08-05 23:39:30.500 ,3,1,0.,24.0,0.,24.0
1979-08-05 23:39:54.500 ,0,1,0.,24.0,0.,24.0
1979-08-05 23:40:18.500 ,4,1,0.,24.0,0.,24.0
1979-08-05 23:40:42.500 ,7,1,0.,24.0,0.,24.0
1979-08-05 23:41:06.500 ,3,1,0.,24.0,0.,24.0
1979-08-05 23:41:30.500 ,0,0,,0,,0
1979-08-05 23:41:54.500 ,0,0,0.,24.0,0.,24.0
1979-08-05 23:42:18.500 ,0,0,0.,24.0,0.,24.0
1979-08-05 23:42:43.100 ,5,1,0.,24.0,0.,24.0
1979-08-05 23:43:06.500 ,5,0,0.,24.0,0.,24.0
1979-08-05 23:43:30.500 ,4,1,0.,24.0,0.,24.0
1979-08-05 23:43:54.500 ,4,0,0.,24.0,0.,24.0
1979-08-05 23:44:18.500 ,3,1,0.,24.0,0.,24.0
1979-08-05 23:44:42.500 ,3,0,0.,24.0,0.,24.0
1979-08-05 23:45:06.500 ,2,1,0.,24.0,0.,24.0
1979-08-05 23:45:30.500 ,2,0,0.,24.0,0.,24.0
1979-08-05 23:45:54.500 ,1,1,0.,24.0,0.,24.0
1979-08-05 23:46:18.500 ,1,0,0.,24.0,0.,24.0
1979-08-05 23:46:42.500 ,0,1,0.,24.0,0.,24.0
1979-08-05 23:47:06.500 ,0,0,0.,24.0,0.,24.0
1979-08-05 23:47:30.500 ,0,1,0.,24.0,0.,24.0
1979-08-05 23:47:54.500 ,0,0,0.,24.0,0.,24.0
1979-08-05 23:48:18.500 ,0,0,0.,24.0,0.,24.0
1979-08-05 23:48:42.500 ,0,0,0.,24.0,0.,24.0
1979-08-05 23:49:06.500 ,2,1,0.,24.0,0.,24.0
1979-08-05 23:49:30.500 ,2,0,0.,24.0,0.,24.0
1979-08-05 23:49:54.500 ,3,1,0.,24.0,0.,24.0
1979-08-05 23:50:18.500 ,3,0,0.,24.0,0.,24.0
1979-08-05 23:50:42.500 ,4,1,0.,24.0,0.,24.0
1979-08-05 23:51:06.500 ,4,0,0.,24.0,0.,24.0
1979-08-05 23:51:30.500 ,5,1,0.,24.0,0.,24.0
1979-08-05 23:51:54.500 ,5,0,0.,24.0,0.,24.0
1979-08-05 23:52:18.500 ,6,1,0.,24.0,0.,24.0
1979-08-05 23:52:42.500 ,6,0,0.,24.0,0.,24.0
1979-08-05 23:53:06.500 ,7,1,0.,24.0,0.,24.0
1979-08-05 23:53:30.500 ,7,0,0.,24.0,0.,24.0
1979-08-05 23:53:54.500 ,7,1,0.,24.0,0.,24.0
1979-08-05 23:54:18.500 ,7,0,0.,24.0,0.,24.0
1979-08-05 23:54:42.500 ,6,1,0.,24.0,0.,24.0
1979-08-05 23:55:06.500 ,6,0,0.,24.0,0.,24.0
1979-08-05 23:55:30.500 ,5,1,0.,24.0,0.,24.0
1979-08-05 23:55:54.500 ,5,0,0.,24.0,0.,24.0
1979-08-05 23:56:18.500 ,4,1,0.,24.0,0.,24.0
1979-08-05 23:56:42.500 ,4,0,0.,24.0,0.,24.0
1979-08-05 23:57:06.500 ,3,1,0.,24.0,0.,24.0
1979-08-05 23:57:30.500 ,3,0,0.,24.0,0.,24.0
1979-08-05 23:57:54.500 ,2,1,0.,24.0,0.,24.0
1979-08-05 23:58:18.500 ,2,0,0.,24.0,0.,24.0
1979-08-05 23:58:42.500 ,1,1,0.,24.0,0.,24.0
1979-08-05 23:59:06.500 ,1,0,0.,24.0,0.,24.0
1979-08-05 23:59:30.500 ,0,1,0.,24.0,0.,24.0
1979-08-05 23:59:54.500 ,0,0,0.,24.0,0.,24.0
1979-08-06 00:00:18.500 ,0,1,0.,24.0,0.,24.0
1979-08-05 23:52:18.500 ,6,1,0.,24.0,0.,24.0
1979-08-05 23:52:42.500 ,6,0,0.,24.0,0.,24.0
1979-08-05 23:53:06.500 ,7,1,0.,24.0,0.,24.0
1979-08-05 23:53:30.500 ,7,0,0.,24.0,0.,24.0
1979-08-05 23:53:54.500 ,7,1,0.,24.0,0.,24.0
1979-08-05 23:54:18.500 ,7,0,0.,24.0,0.,24.0
1979-08-05 23:54:42.500 ,6,1,0.,24.0,0.,24.0
1979-08-05 23:55:06.500 ,6,0,0.,24.0,0.,24.0
1979-08-05 23:55:30.500 ,5,1,0.,24.0,0.,24.0
1979-08-05 23:55:54.500 ,5,0,0.,24.0,0.,24.0
1979-08-05 23:56:18.500 ,4,1,0.,24.0,0.,24.0
1979-08-05 23:56:42.500 ,4,0,0.,24.0,0.,24.0
1979-08-05 23:57:06.500 ,3,1,0.,24.0,0.,24.0
1979-08-05 23:57:30.500 ,3,0,0.,24.0,0.,24.0
1979-08-05 23:57:54.500 ,2,1,0.,24.0,0.,24.0
1979-08-05 23:58:18.500 ,2,0,0.,24.0,0.,24.0
1979-08-05 23:58:42.500 ,1,1,0.,24.0,0.,24.0
1979-08-05 23:59:06.500 ,1,0,0.,24.0,0.,24.0
1979-08-05 23:59:30.500 ,0,1,0.,24.0,0.,24.0
1979-08-05 23:59:54.500 ,0,0,0.,24.0,0.,24.0
1979-08-06 00:00:18.500 ,0,1,0.,24.0,0.,24.0
